Date High Temp Low Temp Barometric Pressure Relative Humidity AM Temp Moisture Snow Notes
4/19/18 48 18 30.34 54% 28
 4/18/18 44 17 30.26 53% 18
4/17/18 37 24 30.06 53% 27
4/16/18 27 16 30.00 71% 24 .1″ 1.5″
4/15/18 38 16 30.08 66% 17 .4″ 4″
4/14/18
4/13/18
4/12/18 41 22 30.04 43% 24 Trace Trace
4/11/18 41 24 29.96 70% 31 Trace Trace
4/10/18 34 19 30.00 66% 24 Trace Trace
4/9/18 35 11 30.12 50% 19
4/8/18 31 -1 30.12 45% 11
4/7/18 23 -1 30.08 40% 0
4/6/18 20 7 30.02 54% 8
4/5/18 20 10 30.00 46% 10 Trace Trace
4/4/18 26 9 30.06 57% 16 Trace Trace
4/3/18 28 7 30.06 35% 8 .01″ 1″
4/2/18
4/1/18 27 9 30.04 47% 16
3/31/18 7 30.08 36% 9 Trace Trace
3/30/18
3/29/18
3/28/18
3/27/18
3/26/18
3/25/18
3/24/18 31 19 30.32 62% 21
3/23/18 34 16 30.34 61% 19
3/22/18 36 -3 30.34 50% 16
3/21/18 31 3 30.24 52% 3
3/20/18 27 7 30.14 52% 10
3/19/18 30 8 30.12 45% 9
3/18/18 40 21 30.12 43% 22
3/17/18 42 22 30.06 42% 29
3/16/18
3/15/18
3/14/18
3/13/18
3/12/18
3/11/18
3/10/18 31 -3 30.04 47% 4
3/9/18 27 -5 30.08 46% -3
 3/8/18 26 6 30.04 54% 17 Trace Trace
3/7/18
3/6/18 26 9 30.08 43% 9
3/5/18 31 13 30.08 55% 13
3/4/18 37 24 30.26 49% 26
3/3/18 39 18 30.36 48% 30
3/2/18 37 6 30.38 60% 19
3/1/18 36 7 30.24 55% 7
2/28/18
2/27/18
2/26/18
2/25/18
2/24/18 25 5 29.72 60% 24 .60″ 7.25″
2/23/18 27 3 30.12 56% 3 Trace Trace
2/22/18 24 4 30.06 75% 20 .35″ 3.5″
2/21/18 19 -8 30.42 57% 14
2/20/18 10 0 30.18 67% 0 Trace Trace
2/19/18 11 1 30.02 67% 4 .2″ 2″
2/18/18 14 1 30.00 67% 1 .6″ 6″
2/17/18 24 1 30.04 45% 4
2/16/18 17 -7 29.80 62% 16 Trace Trace
2/15/18 23 -7 30.06 49% -7
2/14/18
2/13/18 26 -1 30.00 65% 17 Trace Trace
2/12/18 4 -15 30.40 40% -1
2/11/18 11 -11 30.36 40% -11
2/10/18 14 -12 29.60 40% -10
2/9/18 6 -13 30.12 63% -8
2/8/18 5 -12 30.20 63% -12
2/7/18 8 -13 30.16 63% -5
2/6/18 5 -15 30.16 63% -12
2/5/18 4 -17 30.14 63% -14
2/4/18 -1 -17 30.00 63% -7
2/3/18 2 -18 30.10 63% -17
2/2/18
2/1/18
1/31/18
1/30/18
1/29/18
1/28/18 10 -10 30.36 58% -9
1/27/18 23 4 30.30 58% 4
1/26/18 37 23 29.90 63% 23
1/25/18 28 18 29.90 98% 28
1/24/18 20 10 30.12 74% 18 Trace Trace
1/23/18 20 1 30.10 39% 10
1/22/18
1/21/18 28 19 30.06 72% 19
1/20/18 38 15 30.02 72% 17
1/19/18 36 24 29.86 79% 30
1/18/18 30 22 29.74 83% 25 Trace Trace
1/17/18 26 1 29.90 83% 26
1/16/18
1/15/18 12 -1 30.34 59% 1
1/14/18 6 -18 30.20 59% 3 .18″ 1.5″
1/13/18 -3 -18 30.30 59% -18
1/12/18 -5 -17 30.34 59% -17
1/11/18 33 -17 30.20 51% -17 .67″ 5.75″
1/10/18
1/9/18
1/8/18 23 -4 30.10 52% 0
1/7/18 24 22 29.84 74% 23 Trace Trace
1/6/18 11 -22 29.92 63% 11 Trace Trace
1/5/18 -6 -23 30.34 63% -21
1/4/18 -6 -23 30.30 63% -23
1/3/18 -3 -22 30.18 63% -22
1/2/18 6 -9 30.04 63% -9 Trace Trace
1/1/18 0 -17 30.06 63% -2